Regional Weather Roundup
Issued by NWS

Home | Current Version | Previous Version | Graphics & Text | Print | Product List | Glossary On
Versions: 1 2 3 4 5 6 7 8 9 10 11 12 13 14 15 16 17 18 19 20 21 22 23 24 25 26 27 28 29 30 31 32 33 34 35 36 37 38 39 40 41 42 43 44 45 46 47 48 49 50
000
ASUS45 KSLC 261010
RWRUT

UTAH REGIONAL WEATHER ROUNDUP
NATIONAL WEATHER SERVICE SALT LAKE CITY UT
300 AM MST MON JAN 26 2015

UTZ001>011-023>025-261100-

NORTHERN UTAH

CITY           SKY/WX    TMP DP  RH WIND       PRES   REMARKS
BRIGHAM CITY   CLEAR     30  28  90 S3        30.43R
HILL AFB       CLEAR     34  28  79 E5        30.42R WCI  30
LOGAN          CLEAR     27  25  92 CALM      30.42R FOG
OGDEN          CLEAR     30  28  92 CALM      30.42R
PROVO AIRPORT  CLEAR     27  21  80 E5        30.42S WCI  21
SALT LAKE CITY CLEAR     30  28  92 SE7       30.42R WCI  23
VERNAL         PTCLDY    24  19  81 NW3       30.43R
WENDOVER       CLEAR     30  28  93 CALM      30.43R
HEBER CITY     CLEAR     23  21  93 CALM      30.43S
WEST JORDAN    CLEAR     30  30 100 CALM      30.43R

$$

UTZ012>022-026-027-261100-

SOUTHERN/CENTRAL UTAH

CITY           SKY/WX    TMP DP  RH WIND       PRES   REMARKS
BLANDING       CLEAR     31  24  76 N10       30.43S WCI  22
BRYCE CANYON   CLEAR     25  21  85 W9        30.42R WCI  15
CEDAR CITY     CLEAR     26  23  88 CALM      30.37S
DELTA          CLEAR     29  28  96 CALM      30.42R
MILFORD        CLEAR     28  24  85 CALM      30.39S
MOAB/CYNLANDS  CLEAR     30  24  78 CALM      30.39R
PRICE          CLEAR     30  22  72 N10       30.39R WCI  21
ST GEORGE      SUNNY     43  27  52 SE6       30.28S
KANAB          CLEAR     37  27  65 N6        30.36R WCI  33

$$

REGIONAL REPORTS     COLORADO/ARIZONA

CITY           SKY/WX    TMP DP  RH WIND       PRES   REMARKS
CRAIG, CO      PTCLDY    16  15  96 CALM      30.42R
GRAND JUNCTION CLEAR     28  23  81 NE3       30.38R
RIFLE          PTCLDY    26  21  81 E6        30.41S WCI  19
MONTROSE       CLEAR     24  20  84 S8        30.42R WCI  15
CORTEZ         CLEAR     23  19  85 E8        30.38R WCI  14
PAGE, AZ       NOT AVBL
GRAND CANYON   PTCLDY    31  21  66 SW3       30.32S
KINGMAN          N/A     43  24  47 CALM      30.20S
FLAGSTAFF      CLEAR     29  20  69 CALM      30.34S

$$

REGIONAL REPORTS    NEVADA/IDAHO/WYOMING

CITY           SKY/WX    TMP DP  RH WIND       PRES   REMARKS
LAS VEGAS, NV  PTCLDY    54  32  43 SW8       30.14S
ELY            CLEAR     23  21  92 S8        30.41S WCI  14
ELKO           CLEAR     30  26  85 E6        30.39F WCI  24
POCATELLO, ID  FOG       29  29 100 E3        30.45R VSB 1/4
BURLEY         FOG       30  29  96 NE8       30.41S VSB 1/2 WCI  22
EVANSTON, WY   PTCLDY    30  27  88 SW5       30.43R WCI  25
ROCK SPRINGS   CLEAR     30  25  81 W9        30.37R WCI  22
KEMMERER       PTCLDY    27  27 100 NW5       30.41S WCI  21

$$



USA.gov is the U.S. government's official web portal to all federal, state and local government web resources and services.